TECHNOSAT (42829 NORAD) Tracking and Keplerian Element Data

This shows tracking and keplerian element data for the satellite.

Feedback or suggestion? Click here.




ElementValue
Catalog42829
NameTECHNOSAT
Epoch Orbit29144
Epoch Day325.08026911
Epoch Year2022
RAAN169.9707
Inclination97.4012
Eccentricity0.0013207
Argument of Perigee197.372
Mean Anonmoly162.705
Mean Motion14.92301953
Decay Rate1.166E-05
L11 42829U 17042E 22325.08026911 .00001166 00000+0 11909-3 0 9996
L22 42829 97.4012 169.9707 0013207 197.3720 162.7050 14.92301953291449



Live tracking and technical data element details for TECHNOSAT (NORAD 42829). TECHNOSAT can be tracked NOW for your location showing map with azimuth and elevation plus other details from your city location.







IsCatalogInMostPopularTable: catalog: 42829, numindb: 794
Update: records affected: 1



GetName: 42829 TECHNOSAT

Hit Count: updated at: Mon, 28 Nov 2022 04:38:12 GMT